Date String (YYYY-MM-DD hh:mm:ss) UTC,Instrument flags,absolute air pressure of the measurement (hPa),sample flow rate (lpm),inlet stack bypass flow (lpm),air temperature of the measurement (°C),ambient temperature measured by the external sensor (°C),aerosol sample conditioner tube jacket temperature (°C),OPC LED temperature (°C),internal box temperature (°C),relative humidity of the measurement (%),span deviation,mass concentration of particles derived from Lorenz-Mie calculation of OPC scattering (μg/m³),mass concentration of particles derived from Lorenz-Mie calculation of OPC scattering (μg/m³),mass concentration of particles derived from Lorenz-Mie calculation of OPC scattering (μg/m³)
DateTimeUTC,F1_M11,P_M11,Q1_M11,Q2_M11,T1_M11,T2_M11,T3_M11,T4_M11,T5_M11,U1_M11,ZSPAN_M11,X0_M11,X2_M11,X1_M11
2023-10-11 17:00:00,SystemResetWarning,0815.8,5.00,000.00,028.8,027.2,000.0,037.3,030.5,13.8,0000.0,0011.02,0003.75,0003.04
2023-10-11 17:01:00,SystemResetWarning,0815.8,5.00,000.00,028.8,027.3,000.0,037.3,030.5,13.9,0000.0,0010.59,0003.72,0003.00
2023-10-11 17:02:00,SystemResetWarning,0815.9,5.01,000.00,028.8,027.4,000.0,037.3,030.5,14.0,0000.0,0010.53,0003.72,0002.98
2023-10-11 17:03:00,SystemResetWarning,0815.9,5.00,000.00,028.9,027.5,000.0,037.3,030.6,13.9,0000.0,0010.32,0003.71,0002.97
2023-10-11 17:04:00,SystemResetWarning,0815.8,5.00,000.00,028.9,027.6,000.0,037.3,030.6,13.9,0000.0,0010.98,0003.75,0002.96
2023-10-11 17:05:00,SystemResetWarning,0815.8,4.99,000.00,028.9,027.7,000.0,037.4,030.6,13.8,0000.0,0011.62,0003.81,0002.97
2023-10-11 17:06:00,SystemResetWarning,0815.8,5.00,000.00,029.0,027.8,000.0,037.4,030.7,13.7,0000.0,0011.37,0003.82,0002.98
2023-10-11 17:07:00,SystemResetWarning,0815.8,4.99,000.00,029.0,027.9,000.0,037.4,030.7,13.5,0000.0,0011.56,0003.89,0003.01
2023-10-11 17:08:00,SystemResetWarning,0815.8,5.00,000.00,029.0,027.9,000.0,037.4,030.8,13.4,0000.0,0012.61,0003.95,0003.03
2023-10-11 17:09:00,SystemResetWarning,0815.8,5.00,000.00,029.1,028.0,000.0,037.4,030.8,13.3,0000.0,0012.77,0004.01,0003.07
2023-10-11 17:10:00,SystemResetWarning,0815.8,5.00,000.00,029.1,028.0,000.0,037.5,030.8,13.2,0000.0,0012.92,0004.07,0003.10
2023-10-11 17:11:00,SystemResetWarning,0815.7,5.00,000.00,029.1,027.5,000.0,037.5,030.9,13.1,0000.0,0012.63,0004.09,0003.13
2023-10-11 17:12:00,SystemResetWarning,0815.6,5.00,000.00,029.1,025.6,000.0,037.4,030.6,12.9,0000.0,0012.31,0004.11,0003.17
2023-10-11 17:13:00,SystemResetWarning,0815.6,5.00,000.00,028.9,024.5,000.0,037.3,030.4,13.1,0000.0,0011.96,0004.13,0003.22
2023-10-11 17:14:00,SystemResetWarning,0815.6,5.01,000.00,028.9,024.7,000.0,037.3,030.3,13.4,0000.0,0011.97,0004.18,0003.27
2023-10-11 17:15:00,SystemResetWarning,0815.4,5.01,000.00,028.7,025.0,000.0,037.3,030.1,13.5,0000.0,0011.51,0004.19,0003.31
2023-10-11 17:16:00,SystemResetWarning,0815.4,4.99,000.00,028.7,025.4,000.0,037.3,030.2,13.4,0000.0,0010.75,0004.20,0003.35
2023-10-11 17:17:00,SystemResetWarning,0815.3,5.00,000.00,028.7,025.8,000.0,037.3,030.2,13.9,0000.0,0011.22,0004.25,0003.38
2023-10-11 17:18:00,SystemResetWarning,0815.3,5.01,000.00,028.7,026.1,000.0,037.3,030.2,14.2,0000.0,0011.41,0004.28,0003.41
2023-10-11 17:19:00,SystemResetWarning,0815.3,5.00,000.00,028.7,026.4,000.0,037.3,030.3,14.4,0000.0,0010.35,0004.29,0003.46
2023-10-11 17:20:00,SystemResetWarning,0815.3,4.99,000.00,028.7,026.7,000.0,037.3,030.3,14.4,0000.0,0010.39,0004.31,0003.50
2023-10-11 17:21:00,SystemResetWarning,0815.3,5.00,000.00,028.7,026.9,000.0,037.3,030.4,14.1,0000.0,0011.03,0004.38,0003.53
2023-10-11 17:22:00,SystemResetWarning,0815.3,5.00,000.00,028.7,027.1,000.0,037.3,030.4,14.3,0000.0,0011.28,0004.44,0003.55
2023-10-11 17:23:00,SystemResetWarning,0815.3,5.00,000.00,028.7,027.2,000.0,037.3,030.4,14.1,0000.0,0011.51,0004.47,0003.56
2023-10-11 17:24:00,SystemResetWarning,0815.3,5.00,000.00,028.8,027.3,000.0,037.3,030.5,14.1,0000.0,0012.13,0004.46,0003.57
2023-10-11 17:25:00,SystemResetWarning,0815.3,5.00,000.00,028.8,027.4,000.0,037.3,030.5,14.0,0000.0,0011.60,0004.43,0003.57
2023-10-11 17:26:00,SystemResetWarning,0815.3,5.01,000.00,028.8,027.5,000.0,037.3,030.5,13.9,0000.0,0011.50,0004.41,0003.58
2023-10-11 17:27:00,SystemResetWarning,0815.3,5.00,000.00,028.9,027.6,000.0,037.3,030.6,14.0,0000.0,0011.47,0004.41,0003.59
2023-10-11 17:28:00,SystemResetWarning,0815.4,4.99,000.00,028.9,027.7,000.0,037.3,030.6,14.1,0000.0,0010.78,0004.37,0003.59
2023-10-11 17:29:00,SystemResetWarning,0815.4,4.99,000.00,028.9,027.8,000.0,037.3,030.7,14.0,0000.0,0010.39,0004.34,0003.60
2023-10-11 17:30:00,SystemResetWarning,0815.3,5.00,000.00,029.0,027.8,000.0,037.3,030.7,14.0,0000.0,0010.47,0004.33,0003.58
2023-10-11 17:31:00,SystemResetWarning,0815.3,5.00,000.00,029.0,027.9,000.0,037.4,030.7,13.9,0000.0,0010.52,0004.30,0003.57
2023-10-11 17:32:00,SystemResetWarning,0815.3,5.01,000.00,029.0,027.9,000.0,037.4,030.8,14.0,0000.0,0010.20,0004.25,0003.58
2023-10-11 17:33:00,SystemResetWarning,0815.3,5.00,000.00,029.1,027.8,000.0,037.4,030.8,13.9,0000.0,0010.02,0004.20,0003.57
2023-10-11 17:34:00,SystemResetWarning,0815.2,4.98,000.00,029.0,026.3,000.0,037.4,030.7,14.0,0000.0,0009.77,0004.17,0003.58
2023-10-11 17:35:00,SystemResetWarning,0815.1,5.02,000.00,028.9,024.6,000.0,037.3,030.4,14.2,0000.0,0009.33,0004.18,0003.57
2023-10-11 17:36:00,SystemResetWarning,0815.1,5.01,000.00,028.9,024.5,000.0,037.2,030.3,14.4,0000.0,0010.30,0004.20,0003.56
2023-10-11 17:37:00,SystemResetWarning,0815.1,4.99,000.00,028.7,024.8,000.0,037.2,030.1,14.6,0000.0,0010.94,0004.20,0003.56
2023-10-11 17:38:00,SystemResetWarning,0815.1,5.00,000.00,028.7,025.2,000.0,037.2,030.1,14.5,0000.0,0011.23,0004.20,0003.55
2023-10-11 17:39:00,SystemResetWarning,0815.1,5.00,000.00,028.6,025.6,000.0,037.2,030.1,14.5,0000.0,0011.28,0004.20,0003.56
2023-10-11 17:40:00,SystemResetWarning,0815.1,5.00,000.00,028.6,026.0,000.0,037.2,030.2,14.5,0000.0,0011.39,0004.25,0003.57
2023-10-11 17:41:00,SystemResetWarning,0815.1,5.00,000.00,028.6,026.3,000.0,037.2,030.2,14.5,0000.0,0011.31,0004.29,0003.58
2023-10-11 17:42:00,SystemResetWarning,0815.1,5.00,000.00,028.6,026.6,000.0,037.2,030.3,14.5,0000.0,0011.66,0004.32,0003.59
2023-10-11 17:43:00,SystemResetWarning,0815.1,4.99,000.00,028.6,026.8,000.0,037.2,030.3,14.6,0000.0,0012.28,0004.32,0003.59
2023-10-11 17:44:00,SystemResetWarning,0815.0,5.00,000.00,028.7,027.0,000.0,037.2,030.4,14.5,0000.0,0012.27,0004.35,0003.60
2023-10-11 17:45:00,SystemResetWarning,0814.9,5.00,000.00,028.7,027.2,000.0,037.2,030.4,14.1,0000.0,0013.77,0004.34,0003.59
2023-10-11 17:46:00,SystemResetWarning,0814.9,5.00,000.00,028.7,027.3,000.0,037.2,030.5,14.2,0000.0,0014.03,0004.32,0003.60
2023-10-11 17:47:00,SystemResetWarning,0815.0,5.00,000.00,028.7,027.4,000.0,037.2,030.5,14.2,0000.0,0012.76,0004.29,0003.61
2023-10-11 17:48:00,SystemResetWarning,0814.9,5.00,000.00,028.8,027.5,000.0,037.3,030.6,14.3,0000.0,0012.26,0004.28,0003.60
2023-10-11 17:49:00,SystemResetWarning,0814.9,5.00,000.00,028.8,027.6,000.0,037.3,030.6,14.4,0000.0,0012.04,0004.27,0003.60
2023-10-11 17:50:00,SystemResetWarning,0814.8,4.99,000.00,028.9,027.7,000.0,037.3,030.6,14.4,0000.0,0012.10,0004.28,0003.60
2023-10-11 17:51:00,SystemResetWarning,0814.8,4.99,000.00,028.9,027.8,000.0,037.3,030.7,14.4,0000.0,0011.91,0004.21,0003.59
2023-10-11 17:52:00,SystemResetWarning,0814.6,5.01,000.00,028.9,027.9,000.0,037.3,030.7,14.5,0000.0,0011.67,0004.15,0003.58
2023-10-11 17:53:00,SystemResetWarning,0814.6,5.00,000.00,029.0,027.9,000.0,037.3,030.7,14.6,0000.0,0011.21,0004.15,0003.59
2023-10-11 17:54:00,SystemResetWarning,0814.6,4.98,000.00,029.0,026.7,000.0,037.3,030.7,14.6,0000.0,0010.25,0004.14,0003.61
2023-10-11 17:55:00,SystemResetWarning,0814.6,5.01,000.00,028.9,024.8,000.0,037.2,030.4,14.3,0000.0,0011.03,0004.17,0003.61
2023-10-11 17:56:00,SystemResetWarning,0814.5,5.02,000.00,028.8,024.4,000.0,037.2,030.3,14.6,0000.0,0010.59,0004.18,0003.62
2023-10-11 17:57:00,SystemResetWarning,0814.5,4.99,000.00,028.7,024.6,000.0,037.2,030.1,14.8,0000.0,0009.41,0004.20,0003.64
2023-10-11 17:58:00,SystemResetWarning,0814.5,5.00,000.00,028.6,025.0,000.0,037.2,030.0,14.8,0000.0,0009.97,0004.28,0003.64
2023-10-11 17:59:00,SystemResetWarning,0814.4,5.00,000.00,028.6,025.4,000.0,037.2,030.1,14.5,0000.0,0010.09,0004.31,0003.66
